TimeEDT,TemperatureF,Dew PointF,Humidity,Sea Level PressureIn,VisibilityMPH,Wind Direction,Wind SpeedMPH,Gust SpeedMPH,PrecipitationIn,Events,Conditions,WindDirDegrees,DateUTC
12:53 AM,64.0,62.1,93,30.06,6.0,East,5.8,-,N/A,,Overcast,80,2013-10-07 04:53:00
1:53 AM,64.9,64.0,97,30.05,5.0,ESE,5.8,-,N/A,,Overcast,110,2013-10-07 05:53:00
2:53 AM,66.9,66.0,97,30.03,4.0,ESE,3.5,-,N/A,,Overcast,110,2013-10-07 06:53:00
3:19 AM,66.2,66.2,100,30.02,4.0,ESE,5.8,-,N/A,,Overcast,120,2013-10-07 07:19:00
3:53 AM,68.0,66.0,93,30.02,8.0,SE,4.6,-,N/A,,Overcast,140,2013-10-07 07:53:00
4:45 AM,68.0,66.2,94,30.00,7.0,ESE,3.5,-,N/A,,Overcast,120,2013-10-07 08:45:00
4:53 AM,68.0,66.0,93,30.00,7.0,SE,4.6,-,N/A,,Overcast,130,2013-10-07 08:53:00
5:53 AM,68.0,66.0,93,29.99,7.0,SE,4.6,-,N/A,,Overcast,130,2013-10-07 09:53:00
6:53 AM,68.0,66.0,93,29.98,6.0,ESE,4.6,-,N/A,,Overcast,120,2013-10-07 10:53:00
7:02 AM,68.0,66.2,94,29.98,6.0,ESE,5.8,-,N/A,,Overcast,120,2013-10-07 11:02:00
7:19 AM,68.0,66.2,94,29.98,7.0,SE,8.1,-,N/A,,Mostly Cloudy,140,2013-10-07 11:19:00
7:53 AM,69.1,66.9,93,29.98,8.0,SE,8.1,-,N/A,,Overcast,140,2013-10-07 11:53:00
8:53 AM,70.0,68.0,93,29.96,10.0,SSE,11.5,-,N/A,,Overcast,150,2013-10-07 12:53:00
9:53 AM,72.0,68.0,87,29.95,10.0,SSE,11.5,-,N/A,,Mostly Cloudy,150,2013-10-07 13:53:00
10:53 AM,73.9,68.0,82,29.93,10.0,SSE,15.0,-,N/A,,Mostly Cloudy,150,2013-10-07 14:53:00
11:53 AM,73.9,68.0,82,29.91,10.0,South,13.8,-,N/A,,Overcast,170,2013-10-07 15:53:00
12:53 PM,73.9,66.9,79,29.88,10.0,South,16.1,-,N/A,,Overcast,170,2013-10-07 16:53:00
1:15 PM,77.0,68.0,74,29.87,10.0,South,19.6,25.3,N/A,,Overcast,180,2013-10-07 17:15:00
1:27 PM,75.2,68.0,78,29.86,10.0,South,16.1,23.0,N/A,,Overcast,180,2013-10-07 17:27:00
1:53 PM,75.9,68.0,76,29.85,10.0,South,17.3,25.3,N/A,,Overcast,180,2013-10-07 17:53:00
2:53 PM,75.0,68.0,79,29.84,10.0,South,15.0,24.2,N/A,,Overcast,190,2013-10-07 18:53:00
3:53 PM,73.9,66.9,79,29.83,10.0,South,21.9,28.8,N/A,,Overcast,190,2013-10-07 19:53:00
4:53 PM,73.9,66.9,79,29.82,10.0,South,19.6,28.8,0.00,,Mostly Cloudy,190,2013-10-07 20:53:00
5:39 PM,69.8,62.6,78,29.86,1.0,SW,16.1,25.3,0.07,Rain-Thunderstorm,Heavy Thunderstorms and Rain,230,2013-10-07 21:39:00
5:53 PM,68.0,64.0,87,29.85,3.0,SW,12.7,25.3,0.13,Rain,Rain,230,2013-10-07 21:53:00
6:00 PM,68.0,64.4,88,29.85,7.0,SW,10.4,23.0,0.00,Rain,Light Rain,230,2013-10-07 22:00:00
6:53 PM,69.1,64.9,87,29.87,10.0,SW,10.4,18.4,0.00,,Overcast,220,2013-10-07 22:53:00
7:53 PM,69.1,64.9,87,29.88,10.0,SW,9.2,18.4,N/A,,Overcast,230,2013-10-07 23:53:00
8:00 PM,68.0,64.4,88,29.87,10.0,Variable,6.9,16.1,0.00,Rain,Light Rain,0,2013-10-08 00:00:00
8:16 PM,66.2,62.6,88,29.88,10.0,WNW,4.6,-,0.00,,Mostly Cloudy,290,2013-10-08 00:16:00
8:53 PM,66.0,60.1,81,29.89,10.0,NW,9.2,16.1,0.00,,Overcast,320,2013-10-08 00:53:00
9:53 PM,64.0,57.0,78,29.91,10.0,Variable,3.5,-,N/A,,Overcast,0,2013-10-08 01:53:00
10:53 PM,63.0,55.0,75,29.93,10.0,Variable,5.8,-,N/A,,Overcast,0,2013-10-08 02:53:00
11:53 PM,63.0,54.0,72,29.95,10.0,WNW,4.6,-,N/A,,Mostly Cloudy,300,2013-10-08 03:53:00